{"data":{"norad_id":66726,"epoch":"2026-09-20T03:20:55.156128Z","epoch_age_seconds":56914,"freshness":"FRESH","line1":"1 66726U 25276BN  26263.13952727  .00004606  00000+0  21215-3 0  9993","line2":"2 66726  97.4161 335.2183 0005104  42.4481 317.7149 15.20778379 44846","mean_motion":15.20778379,"eccentricity":0.0005104,"inclination_deg":97.4161,"raan_deg":335.2183,"arg_perigee_deg":42.4481,"mean_anomaly_deg":317.7149,"bstar":0.00021215,"rev_number":4484,"period_min":94.688353009522,"perigee_km":499.9790823204,"apogee_km":507.00384865797,"semimajor_km":6881.6284654892,"source":"CELESTRAK","updated_at":"2026-09-20T09:00:34.751898Z"}}